WGS F6 (USA 244)

Last updated on Wed Sep 09 2026 00:03:00 GMT+0000 (Coordinated Universal Time)

1 39222U 13041A 26251.50392000 .00000000 00000+0 00000+0 0 9990 2 39222 0.0268 149.5713 0000318 142.1440 102.0474 1.00270577 46898
UTC large
Height (km)
Speed (km/s)
/
Latitude / Longitude
Inclination (degrees)
Orbital Period (minutes)
Azimuth
Elevation
Range (km)
Doppler Factor

Next 0 passes for location: London (51.5072 / 0.1276)

No passes found over London.
WGS F6 (USA 244)